Skip Page Navigation
NASA JPL Caltech
NASA Logo - Jet Propulsion Laboratory + View the NASA Portal
+ Center for Near-Earth Object Studies
JPL Home Earth Solar System Stars & Galaxies Technology
JPL Solar System Dynamics
BODIES ORBITS EPHEMERIDES TOOLS PHYSICAL DATA DISCOVERY FAQ SITE MAP
JPL Small-Body Database Browser
Search: [ help ]  
129 Antigone (A873 CA)
Classification: Main-belt Asteroid          SPK-ID: 2000129
Ephemeris | Orbit Diagram | Orbital Elements | Mission Design | Physical Parameters | Discovery Circumstances | Close-Approach Data ]

[ show orbit diagram ]
Orbital Elements at Epoch 2459200.5 (2020-Dec-17.0) TDB
Reference: JPL 109 (heliocentric ecliptic J2000)
 Element Value Uncertainty (1-sigma)   Units 
e .2127871428788265 1.6866e-08  
a 2.869556397694058 4.1034e-09 au
q 2.258951690499082 4.7642e-08 au
i 12.27097480126192 4.2188e-07 deg
node 135.6634757460455 2.4156e-06 deg
peri 111.0982157054147 5.455e-06 deg
M 61.70012755613678 3.4065e-06 deg
tp 2458896.198470645310
(2020-Feb-16.69847065)
1.6931e-05 TDB
period 1775.499580094344
4.86
3.8084e-06
1.043e-08
d
yr
n .2027598339284714 4.3492e-10 deg/d
Q 3.480161104889034 4.9766e-09 au
  Orbit Determination Parameters
   # obs. used (total)      3164  
   data-arc span      52610 days (144.04 yr)  
   first obs. used      1876-12-07  
   last obs. used      2020-12-22  
   planetary ephem.      DE441  
   SB-pert. ephem.      SB441-N16  
   condition code      0  
   norm. resid. RMS      .48946  
   source      ORB  
   producer      Otto Matic  
   solution date      2021-May-03 17:53:58  

Additional Information
 Earth MOID = 1.27796 au 
 Jupiter MOID = 1.74967 au 
 T_jup = 3.231 
[ show covariance matrix ]

Ephemeris | Orbit Diagram | Orbital Elements | Mission Design | Physical Parameters | Discovery Circumstances | Close-Approach Data ]

Physical Parameter Table
Parameter Symbol Value Units Sigma Reference Notes
absolute magnitude H 7.07   n/a E2020-QM5  
magnitude slope G 0.33   n/a PDS3 (MPC 17257) Fit
diameter diameter 113 km n/a Dunham occult. list: Wasserman et al. 1986 Yeomans E-mail 2001-Apr-04
rotation period rot_per 4.9572 h n/a LCDB (Rev. 2020-October); Warner et al., 2009 Published Reference List:
[Scaltriti, F.; Zappala, V. (1977) Astron. Astrophys. 56, 7-11.]
[Magnusson, P. (1986) Icarus 68, 1-39.]
[Di Martino, M.; Zappala, V.; De Sanctis, G.; Cacciatori, S. (1987) Icarus 69, 338-353.]
[Weidenschilling, S.J.; Chapman, C.R.; Davis, D.R.; Greenberg, R.; et al. (1987) Icarus 70, 191-245.]
[Drummond, J.D.; Weidenschilling, S.J.; Chapman, C.R.; Davis, D.R. (1988) Icarus 76, 19-77.]
[Lagerkvist, C.I.; Magnusson, P.; Williams, I.P.; Buontempo, M.E.; et al. (1988) Astron. Astrophys. Suppl. Ser. 73, 395-405.]
[Magnusson, P. (1990) Icarus 85, 229-240.]
[Drummond, J.D.; Weidenschilling, S.J.; Chapman, C.R.; Davis, D.R. (1991) Icarus 89, 44-64.]
[De Angelis, G. (1995) Planet. Space Sci. 43, 649-682.]
[Foerster, I.; Potthoff, H. (2001) Minor Planet Bull. 28, 25-26.]
[Torppa, J.; Kaasalainen, M.; Michalowski, T.; Kwiatkowski, T.; et al. (2003) Icarus 164, 346-383.]
[Behrend, R. (2004) Observatoire de Geneve web site, http://obswww.unige.ch/~behrend/page_cou.html]
[Behrend, R. (2005) Observatoire de Geneve web site, http://obswww.unige.ch/~behrend/page_cou.html]
[Ruthroff, J.C. (2009) Minor Planet Bull. 36, 121-122.]
[Behrend, R. (2010) Observatoire de Geneve web site, http://obswww.unige.ch/~behrend/page_cou.html]
[Durech, J.; Kaasalainen, M.; Herald, D.; Dunham, D.; et al. (2011) Icarus 214, 652-670.]
[Ruthroff, J. (2011) http://www.theastroimager.com/doyan_rose.htm]
[Hanus, J.; Marchis, F.; Durech, J. (2013) Icarus 226, 1045-1057.]
[Behrend, R. (2015) Observatoire de Geneve web site, http://obswww.unige.ch/~behrend/page_cou.html]
[Hanus, J.; Durech, J.; Oszkiewicz, D.A.; Behrend, R.; et al. (2016) Astron. Astrophys. 586, A108.]
[Hanus, J.; Viikinkoski, M.; Marchis, F.; Durech, J.; et al (2017) Astron. Astrophys. 601, A114.]
[Cellino, A.; Hestroffer, D.; Lu, X.-P.; Muinonen, K.; Tanga, P. (2019) Astron. Astrophys. 631, A67.]
geometric albedo albedo 0.151   0.057 urn:nasa:pds:neowise_diameters_albedos::2.0[mainbelt] (http://adsabs.harvard.edu/abs/2014ApJ...791..121M)  
B-V BV 0.717   0.012 EAR-A-5-DDR-UBV-MEAN-VALUES-V1.2 #obs=17; phase (min.=8.97, mean=14.32, max.=18.68) deg.
U-B UB 0.245   0.027 EAR-A-5-DDR-UBV-MEAN-VALUES-V1.2 #obs=10; phase (min.=8.97, mean=14.63, max.=18.68) deg.
Tholen spectral type spec_T M   n/a EAR-A-5-DDR-TAXONOMY-V4.0 used 2 color indices; used ground-based radiometric albedo
SMASSII spectral type spec_B X   n/a EAR-A-5-DDR-TAXONOMY-V4.0 based on a high-resolution spectrum by Xu et al. (1995) or Bus and Binzel (2002)

129 Antigone (A873 CA)          Discovered 1873-Feb-05 by Peters, C. H. F. at Clinton
Reference: DISCOVERY.DBLast Updated: 2003-08-29

[ show close-approach data ]
Alternate Designations
 A873 CA = A878 CA = A907 BA 
Ephemeris | Orbit Diagram | Orbital Elements | Mission Design | Physical Parameters | Discovery Circumstances | Close-Approach Data ]
ABOUT SSD CREDITS/AWARDS PRIVACY/COPYRIGHT GLOSSARY LINKS
FirstGov 2021-Jun-18 22:44 UT
(server date/time)  
NASA Home Page
Site Manager:   Ryan S. Park
Webmaster  Alan B. Chamberlin